Date String (YYYY-MM-DD hh:mm:ss) UTC,Instrument flags,Ambient pressure (hPa),Sample flow (lpm),Bypass flow (lpm),Sample temperature (°C),Ambient temperature (°C),ASC tube jacket temperature (°C),LED temperature (°C),Box temperature (°C),Sample RH (%),Span deviation,Mass concentration (μg/m³),Mass concentration (μg/m³),Mass concentration (μg/m³)
DateTimeUTC,F1_M11,P_M11,Q1_M11,Q2_M11,T1_M11,T2_M11,T3_M11,T4_M11,T5_M11,U1_M11,ZSPAN_M11,X0_M11,X2_M11,X1_M11
2022-02-03 17:00:00,,0827.5,4.99,0.00,22.8,23.7,00.0,31.6,24.7,04.6,0000.6,0012.95,0009.37,0008.91
2022-02-03 17:01:00,,0827.6,5.01,0.00,22.9,23.5,00.0,31.6,24.8,04.5,0000.4,0013.01,0009.47,0009.00
2022-02-03 17:02:00,,0827.6,4.99,0.00,22.9,23.1,00.0,31.6,24.7,04.4,0000.6,0013.03,0009.54,0009.09
2022-02-03 17:03:00,,0827.5,5.01,0.00,22.8,22.9,00.0,31.7,24.6,04.3,0000.7,0013.13,0009.64,0009.19
2022-02-03 17:04:00,,0827.5,5.00,0.00,22.8,22.6,00.0,31.7,24.5,04.3,0000.9,0013.28,0009.72,0009.29
2022-02-03 17:05:00,,0827.6,5.00,0.00,22.8,22.4,00.0,31.7,24.5,04.3,0000.9,0013.35,0009.76,0009.37
2022-02-03 17:06:00,,0827.6,4.99,0.00,22.8,22.3,00.0,31.7,24.4,04.2,0000.6,0013.05,0009.86,0009.47
2022-02-03 17:07:00,,0827.6,5.01,0.00,22.7,22.2,00.0,31.7,24.4,04.2,0000.4,0013.00,0009.96,0009.58
2022-02-03 17:08:00,,0827.7,4.99,0.00,22.7,22.1,00.0,31.6,24.4,04.2,0000.2,0013.13,0010.06,0009.66
2022-02-03 17:09:00,,0827.6,4.99,0.00,22.7,22.0,00.0,31.6,24.3,04.2,0000.0,0013.12,0010.10,0009.70
2022-02-03 17:10:00,,0827.6,5.00,0.00,22.7,21.9,00.0,31.6,24.3,04.2,0000.6,0013.19,0010.17,0009.76
2022-02-03 17:11:00,,0827.6,5.00,0.00,22.6,21.9,00.0,31.6,24.3,04.3,0000.5,0013.20,0010.20,0009.81
2022-02-03 17:12:00,,0827.6,5.00,0.00,22.6,21.9,00.0,31.6,24.3,04.4,0000.7,0013.38,0010.26,0009.87
2022-02-03 17:13:00,,0827.6,5.00,0.00,22.6,21.8,00.0,31.6,24.3,04.4,0000.6,0013.50,0010.29,0009.87
2022-02-03 17:14:00,,0827.6,5.01,0.00,22.6,21.8,00.0,31.6,24.3,04.4,0000.5,0013.54,0010.29,0009.88
2022-02-03 17:15:00,,0827.6,4.98,0.00,22.6,21.8,00.0,31.6,24.3,04.4,-000.5,0013.48,0010.28,0009.87
2022-02-03 17:16:00,,0827.6,5.00,0.00,22.6,21.8,00.0,31.6,24.3,04.4,-000.6,0013.41,0010.30,0009.87
2022-02-03 17:17:00,,0827.6,5.00,0.00,22.6,21.8,00.0,31.6,24.3,04.4,-000.4,0013.38,0010.30,0009.87
2022-02-03 17:18:00,,0827.7,4.99,0.00,22.6,22.0,00.0,31.6,24.3,04.4,-000.4,0013.38,0010.30,0009.84
2022-02-03 17:19:00,,0827.7,5.00,0.00,22.7,23.0,00.0,31.6,24.5,04.4,0000.1,0013.36,0010.30,0009.85
2022-02-03 17:20:00,,0827.7,5.00,0.00,22.8,23.7,00.0,31.6,24.8,04.3,0000.7,0013.37,0010.32,0009.87
2022-02-03 17:21:00,,0827.7,5.00,0.00,22.9,23.7,00.0,31.7,24.9,04.3,0000.5,0013.35,0010.30,0009.87
2022-02-03 17:22:00,,0827.6,5.00,0.00,23.0,23.4,00.0,31.7,24.9,04.3,-000.2,0013.83,0010.27,0009.85
2022-02-03 17:23:00,,0827.7,5.00,0.00,23.0,23.2,00.0,31.7,24.9,04.3,-000.3,0013.84,0010.28,0009.85
2022-02-03 17:24:00,,0827.7,5.00,0.00,23.0,23.0,00.0,31.7,24.8,04.3,-000.0,0013.80,0010.30,0009.85
2022-02-03 17:25:00,,0827.6,5.01,0.00,23.0,22.8,00.0,31.8,24.8,04.2,-000.1,0013.69,0010.25,0009.83
2022-02-03 17:26:00,,0827.6,4.99,0.00,23.0,22.7,00.0,31.8,24.8,04.2,-000.2,0013.64,0010.25,0009.83
2022-02-03 17:27:00,,0827.6,5.01,0.00,23.0,22.6,00.0,31.8,24.8,04.2,0000.2,0013.67,0010.26,0009.85
2022-02-03 17:28:00,,0827.6,5.00,0.00,23.0,22.5,00.0,31.8,24.8,04.1,0000.3,0013.73,0010.28,0009.86
2022-02-03 17:29:00,,0827.6,5.01,0.00,22.9,22.4,00.0,31.8,24.8,04.1,0000.7,0013.77,0010.29,0009.89
2022-02-03 17:30:00,,0827.6,4.99,0.00,22.9,22.3,00.0,31.8,24.7,04.1,0000.8,0013.76,0010.28,0009.90
2022-02-03 17:31:00,,0827.6,5.00,0.00,22.9,22.2,00.0,31.8,24.7,04.1,0000.4,0013.96,0010.26,0009.89
2022-02-03 17:32:00,,0827.6,5.01,0.00,22.9,22.2,00.0,31.8,24.6,04.1,0000.6,0014.94,0010.26,0009.89
2022-02-03 17:33:00,,0827.5,4.99,0.00,22.9,22.1,00.0,31.8,24.6,04.1,0000.7,0014.81,0010.26,0009.91
2022-02-03 17:34:00,,0827.5,5.01,0.00,22.9,22.1,00.0,31.8,24.6,04.1,0000.7,0015.18,0010.24,0009.91
2022-02-03 17:35:00,,0827.5,4.99,0.00,22.8,22.0,00.0,31.8,24.5,04.1,0000.4,0015.20,0010.20,0009.91
2022-02-03 17:36:00,,0827.5,5.01,0.00,22.8,22.0,00.0,31.8,24.5,04.1,0000.5,0015.22,0010.19,0009.88
2022-02-03 17:37:00,,0827.5,5.01,0.00,22.8,22.0,00.0,31.8,24.5,04.1,0001.0,0015.17,0010.16,0009.85
2022-02-03 17:38:00,,0827.5,4.99,0.00,22.8,22.0,00.0,31.7,24.5,04.1,0000.9,0015.22,0010.10,0009.79
2022-02-03 17:39:00,,0827.5,5.00,0.00,22.8,22.0,00.0,31.7,24.5,04.0,0000.5,0015.34,0010.02,0009.73
2022-02-03 17:40:00,,0827.5,5.00,0.00,22.8,22.0,00.0,31.7,24.6,04.1,0000.5,0015.21,0009.95,0009.66
2022-02-03 17:41:00,,0827.5,4.99,0.00,22.8,22.0,00.0,31.7,24.5,04.0,0000.5,0015.18,0009.91,0009.62
2022-02-03 17:42:00,,0827.6,5.01,0.00,22.8,22.0,00.0,31.7,24.5,04.0,0000.9,0014.98,0009.91,0009.58
2022-02-03 17:43:00,,0827.5,4.99,0.00,22.8,21.9,00.0,31.7,24.5,04.0,0000.7,0013.96,0009.87,0009.54
2022-02-03 17:44:00,,0827.5,5.01,0.00,22.7,21.9,00.0,31.7,24.5,04.0,0000.8,0013.56,0009.82,0009.48
2022-02-03 17:45:00,,0827.5,4.99,0.00,22.7,21.9,00.0,31.7,24.4,04.1,0001.0,0012.99,0009.79,0009.42
2022-02-03 17:46:00,,0827.5,4.99,0.00,22.7,21.9,00.0,31.7,24.4,04.1,0001.1,0012.81,0009.74,0009.37
2022-02-03 17:47:00,,0827.5,5.00,0.00,22.8,22.7,00.0,31.7,24.6,04.1,0001.2,0012.75,0009.71,0009.36
2022-02-03 17:48:00,,0827.5,5.01,0.00,22.9,23.6,00.0,31.7,24.8,04.1,0000.8,0012.83,0009.73,0009.34
2022-02-03 17:49:00,,0827.6,4.98,0.00,23.0,23.8,00.0,31.8,25.0,04.1,0000.7,0012.89,0009.77,0009.33
2022-02-03 17:50:00,,0827.5,5.00,0.00,23.1,23.6,00.0,31.8,25.0,04.1,0001.2,0013.13,0009.78,0009.32
2022-02-03 17:51:00,,0827.5,5.00,0.00,23.1,23.4,00.0,31.8,25.0,04.0,0000.8,0013.43,0009.80,0009.32
2022-02-03 17:52:00,,0827.5,5.01,0.00,23.1,23.2,00.0,31.8,25.0,04.1,0000.5,0013.46,0009.80,0009.32
2022-02-03 17:53:00,,0827.5,5.00,0.00,23.1,23.0,00.0,31.9,25.0,04.1,0000.7,0013.49,0009.81,0009.33
2022-02-03 17:54:00,,0827.5,4.99,0.00,23.1,22.9,00.0,31.9,24.9,04.1,0000.9,0013.50,0009.82,0009.34
2022-02-03 17:55:00,,0827.5,5.01,0.00,23.1,22.8,00.0,31.9,24.9,04.1,0001.4,0013.54,0009.85,0009.35
2022-02-03 17:56:00,,0827.5,4.99,0.00,23.1,22.7,00.0,31.9,24.9,04.1,0001.5,0013.55,0009.85,0009.38
2022-02-03 17:57:00,,0827.4,5.01,0.00,23.1,22.7,00.0,31.9,24.9,04.2,0001.2,0013.57,0009.86,0009.40
2022-02-03 17:58:00,,0827.5,4.99,0.00,23.1,22.6,00.0,31.9,25.0,04.1,0000.7,0013.57,0009.87,0009.41
2022-02-03 17:59:00,,0827.4,5.02,0.00,23.2,22.6,00.0,32.0,25.0,04.1,0001.1,0013.57,0009.90,0009.45
